Погода в Деревянке

Россия / Республика Карелия     61°33′50″N   34°26′48″E
темп.,
°C
ветер,
м/с
пор.,
м/с
влажн.,
%
обл.,
%
осадки,
мм/ч
давл.,
гПа
погр.,
м
27 сентября, пн
пн2700:00+8с269671 0.0 1024207
03:00+6ссз279832 0.0 1026176
06:00+6с269858 0.0 1028141
09:00+8с369390 0.0 1029259
12:00+11ссв358168 0.0 1030484
15:00+11ссв35725 0.0 1031534
18:00+8ссв23894 0.0 103156
21:00+7ссв22930 0.0 103230
28 сентября, вт
вт2800:00+7ссв22955 0.0 103320
03:00+6ссв119435 0.0 103412
06:00+6с119349 0.0 103414
09:00+9св018288 0.0 1035102
12:00+12в11635 0.0 1035731
15:00+12всв21615 0.0 1035789
18:00+8в118417 0.0 103514
21:00+6юз119112 0.0 103616
29 сентября, ср
ср2900:00+6зюз129126 0.0 103619
03:00+6з22915 0.0 103622
06:00+5з229216 0.0 103624
09:00+9зсз138010 0.0 1036147
12:00+13зсз126392 0.0 1036619
15:00+13сз126075 0.0 1035833
18:00+10сз118146 0.0 103511
21:00+7з228723 0.0 103516
30 сентября, чт
чт3000:00+6з229154 0.0 103623
03:00+6з229360 0.0 103623
06:00+5з129373 0.0 103621
09:00+8з127988 0.0 1036122
12:00+12зюз125760 0.0 1035574
15:00+13ююз125329 0.0 1034836
18:00+9юз117449 0.0 103311
21:00+7зюз118363 0.0 103316
1 октября, пт
пт100:00+6юз228873 0.0 103325
03:00+5юз229349 0.0 103335
06:00+5юз239531 0.0 103255
09:00+8ююз368451 0.0 1032210
12:00+11ююз466613 0.0 1031741
15:00+12юз465657 0.0 1030992
18:00+8ююз257475 0.0 102987
21:00+5юз288463 0.0 1029159